Details From KUGN - WAUKEGAN RGNL
To KARB - Ann Arbor Muni
Flight Number -
Tags generated
Created
Modified
Stats Distance 183 nm / 340 km
Max Altitude 17,000 ft / 5,182 m
Waypoints 3
Social Downloads 1
Likes 0
Share VATSIM

Download

Looking for another format? Having issues loading an existing format? Contact us
Advertisement - Login to hide

Notes

Basic altitude profile: - Ascent Rate: 1000ft/min - Ascent Speed: 140kts - Cruise Altitude: 17000ft - Cruise Speed: 255kts - Descent Rate: 1500ft/min - Descent Speed: 200kts

Route

KUGN BRONZ KARB

ID Type Via Altitude Latitude Longitude Leg Dist Tot Dist Heading (true) Name
O KUGN APT - 0 ft / 0 m 42.42240˚ -87.86811˚ - 0 nm - WAUKEGAN RGNL
BRONZ FIX - 17,000 ft / 5,182 m 42.33366˚ -85.65963˚ 98 nm 98 nm 92° / 94° -
O KARB APT - 0 ft / 0 m 42.22297˚ -83.74570˚ 85 nm 183 nm 94° / 95° Ann Arbor Muni

Altitude Profile

Advertisement - Login to hide

Weather


0- 5 10 15 20 25 30 35+ Temperature / ° C

Clouds and Precipitation
Forecast for 2018-05-21 06:00 UTC. Updated 4 hours ago

Ground ~20,000 ft ~40,000 ft Winds

KUGN

Details ICAO KUGN (UGN)
Name WAUKEGAN RGNL
Region United States
Timezone America/Chicago (UTC-5.0)
Stats Elevation 727 ft / 222 m (AMSL)
Location 42.422401° -87.868107°
Runways 2
Magnetic Variation 3.857° W

METAR

KUGN 210855Z AUTO 04007KT 10SM OVC023 08/06 A3014 RMK AO2 SLP210 T00830061 58008

Decode

TAF

Not found

Departure Runways

ID Width Length Bearing (true) Bearing (mag) Surface Threshold Offset Overrun Length
05 150 ft / 46 m 5,994 ft / 1,827 m 48.35° 52.21° Asphalt 0 ft / 0 m 0 ft / 0 m
14 75 ft / 23 m 3,751 ft / 1,143 m 144.30° 148.16° Asphalt 500 ft / 152 m 0 ft / 0 m
23 150 ft / 46 m 5,994 ft / 1,827 m 228.36° 232.22° Asphalt 0 ft / 0 m 0 ft / 0 m
32 75 ft / 23 m 3,751 ft / 1,143 m 324.30° 328.16° Asphalt 0 ft / 0 m 0 ft / 0 m

KARB

Details ICAO KARB (ARB)
Name Ann Arbor Muni
Region United States
Timezone America/Detroit (UTC-4.0)
Stats Elevation 839 ft / 256 m (AMSL)
Location 42.222969° -83.745698°
Runways 2
Magnetic Variation 7.019° W

METAR

KARB 210853Z AUTO 03003KT 10SM CLR 11/09 A3020 RMK AO2 SLP228 T01110089 55003

Decode

TAF

Not found

Destination Runways

ID Width Length Bearing (true) Bearing (mag) Surface Threshold Offset Overrun Length
06 75 ft / 23 m 3,501 ft / 1,067 m 54.42° 61.44° Concrete 0 ft / 0 m 0 ft / 0 m
12 112 ft / 34 m 2,796 ft / 852 m 122.28° 129.30° Grass 0 ft / 0 m 0 ft / 0 m
24 75 ft / 23 m 3,501 ft / 1,067 m 234.43° 241.45° Concrete 0 ft / 0 m 0 ft / 0 m
30 112 ft / 34 m 2,796 ft / 852 m 302.28° 309.30° Grass 0 ft / 0 m 0 ft / 0 m